Time,TemperatureF,DewpointF,PressureIn,WindDirection,WindDirectionDegrees,WindSpeedMPH,WindSpeedGustMPH,Humidity,HourlyPrecipIn,Conditions,Clouds,dailyrainin,SoftwareType,DateUTC
2013-07-28 00:02:00,74.0,66.0,29.80,West,275,0.0,0.0,77,0.00,,,0.21,,2013-07-28 06:02:00,
2013-07-28 00:12:00,74.0,66.0,29.80,West,275,0.0,0.0,77,0.00,,,0.21,,2013-07-28 06:12:00,
2013-07-28 00:22:00,74.0,66.0,29.80,West,275,0.0,0.0,77,0.00,,,0.21,,2013-07-28 06:22:00,
2013-07-28 00:32:00,74.0,65.0,29.79,West,271,1.0,5.0,74,0.00,,,0.21,,2013-07-28 06:32:00,
2013-07-28 00:42:00,74.0,65.0,29.80,West,271,0.0,4.0,74,0.00,,,0.21,,2013-07-28 06:42:00,
2013-07-28 00:52:00,74.0,65.0,29.80,West,271,0.0,4.0,74,0.00,,,0.21,,2013-07-28 06:52:00,
2013-07-28 01:02:00,73.0,64.0,29.80,West,271,0.0,2.0,73,0.00,,,0.21,,2013-07-28 07:02:00,
2013-07-28 01:12:00,73.0,64.0,29.80,West,271,0.0,1.0,74,0.00,,,0.21,,2013-07-28 07:12:00,
2013-07-28 01:22:00,73.0,64.0,29.80,West,271,0.0,1.0,74,0.00,,,0.21,,2013-07-28 07:22:00,
2013-07-28 01:32:00,72.0,64.0,29.79,West,271,0.0,1.0,75,0.00,,,0.16,,2013-07-28 07:32:00,
2013-07-28 01:42:00,72.0,65.0,29.79,West,271,0.0,0.0,78,0.00,,,0.16,,2013-07-28 07:42:00,
2013-07-28 01:53:00,72.0,65.0,29.79,West,271,0.0,0.0,78,0.00,,,0.16,,2013-07-28 07:53:00,
2013-07-28 02:02:00,71.0,63.0,29.79,WSW,249,0.0,6.0,76,0.00,,,0.16,,2013-07-28 08:02:00,
2013-07-28 02:12:00,71.0,63.0,29.80,South,191,0.0,5.0,76,0.00,,,0.16,,2013-07-28 08:12:00,
2013-07-28 02:22:00,71.0,63.0,29.80,South,191,0.0,5.0,76,0.00,,,0.16,,2013-07-28 08:22:00,
2013-07-28 02:33:00,71.0,63.0,29.79,South,186,0.0,4.0,77,0.00,,,0.14,,2013-07-28 08:33:00,
2013-07-28 02:42:00,70.0,63.0,29.79,South,186,0.0,2.0,78,0.00,,,0.14,,2013-07-28 08:42:00,
2013-07-28 02:53:00,70.0,63.0,29.79,South,186,0.0,2.0,78,0.00,,,0.14,,2013-07-28 08:53:00,
2013-07-28 03:02:00,70.0,64.0,29.79,South,186,0.0,2.0,80,0.00,,,0.14,,2013-07-28 09:02:00,
2013-07-28 03:12:00,69.0,63.0,29.78,South,186,0.0,1.0,80,0.00,,,0.14,,2013-07-28 09:12:00,
2013-07-28 03:22:00,69.0,63.0,29.78,South,186,0.0,1.0,80,0.00,,,0.14,,2013-07-28 09:22:00,
2013-07-28 03:32:00,69.0,63.0,29.77,South,186,0.0,0.0,81,0.00,,,0.11,,2013-07-28 09:32:00,
2013-07-28 03:43:00,69.0,63.0,29.77,South,186,0.0,0.0,82,0.00,,,0.11,,2013-07-28 09:43:00,
2013-07-28 03:53:00,69.0,63.0,29.77,South,186,0.0,0.0,82,0.00,,,0.11,,2013-07-28 09:53:00,
2013-07-28 04:02:00,69.0,64.0,29.76,South,186,0.0,0.0,83,0.00,,,0.11,,2013-07-28 10:02:00,
2013-07-28 04:12:00,69.0,64.0,29.76,South,186,0.0,0.0,83,0.00,,,0.11,,2013-07-28 10:12:00,
2013-07-28 04:22:00,69.0,64.0,29.76,South,186,0.0,0.0,83,0.00,,,0.11,,2013-07-28 10:22:00,
2013-07-28 04:32:00,68.0,63.0,29.76,South,186,0.0,0.0,84,0.00,,,0.05,,2013-07-28 10:32:00,
2013-07-28 04:42:00,68.0,64.0,29.76,South,186,0.0,1.0,86,0.00,,,0.05,,2013-07-28 10:42:00,
2013-07-28 04:52:00,68.0,64.0,29.76,South,186,0.0,1.0,86,0.00,,,0.05,,2013-07-28 10:52:00,
2013-07-28 05:12:00,67.0,63.0,29.75,South,186,0.0,0.0,87,0.00,,,0.05,,2013-07-28 11:12:00,
2013-07-28 05:22:00,67.0,63.0,29.75,South,186,0.0,0.0,87,0.00,,,0.05,,2013-07-28 11:22:00,
2013-07-28 05:33:00,67.0,63.0,29.75,South,186,0.0,0.0,88,0.00,,,0.01,,2013-07-28 11:33:00,
2013-07-28 05:43:00,67.0,64.0,29.75,South,186,0.0,0.0,89,0.00,,,0.01,,2013-07-28 11:43:00,
2013-07-28 05:53:00,67.0,64.0,29.75,South,186,0.0,0.0,89,0.00,,,0.01,,2013-07-28 11:53:00,
2013-07-28 06:02:00,66.0,63.0,29.75,South,186,0.0,0.0,89,0.00,,,0.01,,2013-07-28 12:02:00,
2013-07-28 06:12:00,66.0,63.0,29.76,South,186,0.0,0.0,90,0.00,,,0.01,,2013-07-28 12:12:00,
2013-07-28 06:22:00,66.0,63.0,29.76,South,186,0.0,0.0,90,0.00,,,0.01,,2013-07-28 12:22:00,
2013-07-28 06:33:00,66.0,63.0,29.76,South,186,0.0,0.0,91,0.00,,,0.00,,2013-07-28 12:33:00,
2013-07-28 06:43:00,66.0,63.0,29.77,South,186,0.0,0.0,91,0.00,,,0.00,,2013-07-28 12:43:00,
2013-07-28 06:53:00,66.0,63.0,29.77,South,186,0.0,0.0,91,0.00,,,0.00,,2013-07-28 12:53:00,
2013-07-28 07:02:00,66.0,64.0,29.78,South,186,0.0,0.0,92,0.00,,,0.00,,2013-07-28 13:02:00,
2013-07-28 07:12:00,66.0,64.0,29.77,South,186,0.0,0.0,92,0.00,,,0.00,,2013-07-28 13:12:00,
2013-07-28 07:22:00,66.0,64.0,29.77,South,186,0.0,0.0,92,0.00,,,0.00,,2013-07-28 13:22:00,
2013-07-28 07:32:00,67.0,65.0,29.77,South,186,0.0,0.0,92,0.00,,,0.00,,2013-07-28 13:32:00,
2013-07-28 07:43:00,67.0,64.0,29.77,South,186,0.0,0.0,91,0.00,,,0.00,,2013-07-28 13:43:00,
2013-07-28 07:52:00,67.0,64.0,29.77,South,186,0.0,0.0,91,0.00,,,0.00,,2013-07-28 13:52:00,
2013-07-28 08:02:00,68.0,65.0,29.77,South,186,0.0,0.0,90,0.00,,,0.00,,2013-07-28 14:02:00,
2013-07-28 08:12:00,69.0,65.0,29.78,South,186,0.0,0.0,88,0.00,,,0.00,,2013-07-28 14:12:00,
2013-07-28 08:22:00,69.0,65.0,29.78,South,186,0.0,0.0,88,0.00,,,0.00,,2013-07-28 14:22:00,
2013-07-28 08:33:00,71.0,66.0,29.78,South,186,0.0,1.0,83,0.00,,,0.00,,2013-07-28 14:33:00,
2013-07-28 08:53:00,71.0,65.0,29.78,South,186,0.0,1.0,82,0.00,,,0.00,,2013-07-28 14:53:00,
2013-07-28 09:02:00,72.0,65.0,29.78,South,186,0.0,1.0,80,0.00,,,0.00,,2013-07-28 15:02:00,
2013-07-28 09:12:00,74.0,66.0,29.78,South,186,0.0,1.0,77,0.00,,,0.00,,2013-07-28 15:12:00,
2013-07-28 09:22:00,74.0,66.0,29.78,South,186,0.0,1.0,77,0.00,,,0.00,,2013-07-28 15:22:00,
2013-07-28 09:32:00,75.0,66.0,29.78,South,186,0.0,3.0,74,0.00,,,0.00,,2013-07-28 15:32:00,
2013-07-28 09:43:00,76.0,66.0,29.78,South,187,0.0,8.0,71,0.00,,,0.00,,2013-07-28 15:43:00,
2013-07-28 09:53:00,76.0,66.0,29.78,South,187,0.0,8.0,71,0.00,,,0.00,,2013-07-28 15:53:00,
2013-07-28 10:02:00,75.0,65.0,29.78,South,190,0.0,5.0,70,0.00,,,0.00,,2013-07-28 16:02:00,
2013-07-28 10:12:00,76.0,65.0,29.78,South,190,0.0,2.0,69,0.00,,,0.00,,2013-07-28 16:12:00,
2013-07-28 10:22:00,76.0,65.0,29.78,South,190,0.0,2.0,69,0.00,,,0.00,,2013-07-28 16:22:00,
2013-07-28 10:33:00,77.0,66.0,29.78,South,190,0.0,3.0,69,0.00,,,0.00,,2013-07-28 16:33:00,
2013-07-28 10:43:00,78.0,66.0,29.78,SSW,205,0.0,6.0,66,0.00,,,0.00,,2013-07-28 16:43:00,
2013-07-28 10:52:00,78.0,66.0,29.78,SSW,205,0.0,6.0,66,0.00,,,0.00,,2013-07-28 16:52:00,
2013-07-28 11:02:00,78.0,66.0,29.78,SSW,205,0.0,5.0,67,0.00,,,0.00,,2013-07-28 17:02:00,
2013-07-28 11:12:00,79.0,66.0,29.78,SSW,208,0.0,2.0,64,0.00,,,0.00,,2013-07-28 17:12:00,
2013-07-28 11:22:00,79.0,66.0,29.78,SSW,208,0.0,2.0,64,0.00,,,0.00,,2013-07-28 17:22:00,
2013-07-28 11:32:00,80.0,66.0,29.77,SSW,209,0.0,5.0,63,0.00,,,0.00,,2013-07-28 17:32:00,
2013-07-28 11:53:00,80.0,66.0,29.77,SW,217,0.0,5.0,63,0.00,,,0.00,,2013-07-28 17:53:00,
2013-07-28 12:03:00,81.0,67.0,29.77,SW,218,0.0,5.0,62,0.00,,,0.00,,2013-07-28 18:03:00,
2013-07-28 12:22:00,82.0,66.0,29.76,SW,216,2.0,5.0,58,0.00,,,0.00,,2013-07-28 18:22:00,
2013-07-28 12:33:00,83.0,66.0,29.75,SSW,200,0.0,4.0,57,0.00,,,0.00,,2013-07-28 18:33:00,
2013-07-28 12:43:00,85.0,66.0,29.75,SSW,198,1.0,6.0,53,0.00,,,0.00,,2013-07-28 18:43:00,
2013-07-28 12:52:00,85.0,66.0,29.75,SSW,198,1.0,6.0,53,0.00,,,0.00,,2013-07-28 18:52:00,
2013-07-28 13:02:00,86.0,67.0,29.74,SSW,197,0.0,4.0,53,0.00,,,0.00,,2013-07-28 19:02:00,
2013-07-28 13:12:00,87.0,66.0,29.73,SSW,195,0.0,2.0,50,0.00,,,0.00,,2013-07-28 19:12:00,
2013-07-28 13:22:00,87.0,66.0,29.73,SSW,195,0.0,2.0,50,0.00,,,0.00,,2013-07-28 19:22:00,
2013-07-28 13:33:00,87.0,66.0,29.73,SSW,195,0.0,2.0,50,0.00,,,0.00,,2013-07-28 19:33:00,
2013-07-28 13:52:00,86.0,66.0,29.71,WNW,296,0.0,4.0,52,0.00,,,0.00,,2013-07-28 19:52:00,
2013-07-28 14:02:00,88.0,65.0,29.70,WSW,252,0.0,7.0,47,0.00,,,0.00,,2013-07-28 20:02:00,
2013-07-28 14:12:00,89.0,66.0,29.69,WSW,243,2.0,5.0,47,0.00,,,0.00,,2013-07-28 20:12:00,
2013-07-28 14:23:00,89.0,66.0,29.69,WSW,243,2.0,5.0,47,0.00,,,0.00,,2013-07-28 20:23:00,
2013-07-28 14:33:00,89.0,64.0,29.68,WSW,251,0.0,7.0,43,0.00,,,0.00,,2013-07-28 20:33:00,
2013-07-28 14:43:00,89.0,64.0,29.67,West,260,0.0,5.0,43,0.00,,,0.00,,2013-07-28 20:43:00,
2013-07-28 14:52:00,89.0,64.0,29.67,West,260,0.0,5.0,43,0.00,,,0.00,,2013-07-28 20:52:00,
2013-07-28 15:02:00,91.0,63.0,29.67,WSW,240,0.0,6.0,39,0.00,,,0.00,,2013-07-28 21:02:00,
2013-07-28 15:12:00,90.0,62.0,29.66,North,357,0.0,6.0,40,0.00,,,0.00,,2013-07-28 21:12:00,
2013-07-28 15:22:00,90.0,62.0,29.66,North,357,0.0,6.0,40,0.00,,,0.00,,2013-07-28 21:22:00,
2013-07-28 15:33:00,90.0,64.0,29.66,NNW,333,1.0,5.0,42,0.00,,,0.00,,2013-07-28 21:33:00,
2013-07-28 15:44:00,90.0,64.0,29.65,WSW,248,1.0,8.0,42,0.00,,,0.00,,2013-07-28 21:44:00,
2013-07-28 15:52:00,90.0,64.0,29.65,WSW,248,1.0,8.0,42,0.00,,,0.00,,2013-07-28 21:52:00,
2013-07-28 16:02:00,88.0,63.0,29.66,WSW,244,1.0,7.0,43,0.00,,,0.00,,2013-07-28 22:02:00,
2013-07-28 16:12:00,83.0,59.0,29.68,West,274,1.0,19.0,44,0.00,,,0.00,,2013-07-28 22:12:00,
2013-07-28 16:22:00,83.0,59.0,29.68,West,274,1.0,19.0,44,0.00,,,0.00,,2013-07-28 22:22:00,
2013-07-28 16:32:00,80.0,59.0,29.66,WNW,282,1.0,11.0,48,0.00,,,0.00,,2013-07-28 22:32:00,
2013-07-28 16:43:00,80.0,58.0,29.66,West,274,0.0,3.0,47,0.00,,,0.00,,2013-07-28 22:43:00,
2013-07-28 16:52:00,80.0,58.0,29.66,West,274,0.0,3.0,47,0.00,,,0.00,,2013-07-28 22:52:00,
2013-07-28 17:03:00,81.0,59.0,29.65,West,273,0.0,1.0,48,0.00,,,0.00,,2013-07-28 23:03:00,
2013-07-28 17:12:00,82.0,59.0,29.66,West,274,0.0,0.0,45,0.00,,,0.00,,2013-07-28 23:12:00,
2013-07-28 17:22:00,82.0,59.0,29.66,West,274,0.0,0.0,45,0.00,,,0.00,,2013-07-28 23:22:00,
2013-07-28 17:32:00,83.0,59.0,29.65,West,273,0.0,4.0,45,0.00,,,0.00,,2013-07-28 23:32:00,
2013-07-28 17:43:00,84.0,62.0,29.65,West,271,0.0,4.0,47,0.00,,,0.00,,2013-07-28 23:43:00,
2013-07-28 17:53:00,84.0,62.0,29.65,West,271,0.0,4.0,47,0.00,,,0.00,,2013-07-28 23:53:00,
2013-07-28 18:02:00,86.0,65.0,29.65,West,264,0.0,4.0,50,0.00,,,0.00,,2013-07-29 00:02:00,
2013-07-28 18:22:00,84.0,66.0,29.66,WSW,252,0.0,4.0,54,0.00,,,0.00,,2013-07-29 00:22:00,
2013-07-28 18:32:00,82.0,66.0,29.65,WSW,246,0.0,4.0,59,0.00,,,0.00,,2013-07-29 00:32:00,
2013-07-28 18:52:00,81.0,65.0,29.65,WSW,243,0.0,5.0,58,0.00,,,0.00,,2013-07-29 00:52:00,
2013-07-28 19:02:00,81.0,63.0,29.67,WSW,243,0.0,1.0,55,0.00,,,0.00,,2013-07-29 01:02:00,
2013-07-28 19:12:00,81.0,63.0,29.67,WSW,242,0.0,4.0,55,0.00,,,0.00,,2013-07-29 01:12:00,
2013-07-28 19:26:00,81.0,63.0,29.67,WSW,242,0.0,4.0,55,0.00,,,0.00,,2013-07-29 01:26:00,
2013-07-28 19:34:00,81.0,63.0,29.67,WSW,242,0.0,4.0,55,0.00,,,0.00,,2013-07-29 01:34:00,
2013-07-28 20:05:00,82.0,64.0,29.68,WSW,240,0.0,1.0,55,0.00,,,0.00,,2013-07-29 02:05:00,
2013-07-28 20:14:00,81.0,63.0,29.67,WSW,241,0.0,1.0,54,0.00,,,0.00,,2013-07-29 02:14:00,
2013-07-28 20:24:00,81.0,63.0,29.67,WSW,241,0.0,1.0,54,0.00,,,0.00,,2013-07-29 02:24:00,
2013-07-28 20:36:00,80.0,63.0,29.69,WSW,241,0.0,1.0,57,0.00,,,0.00,,2013-07-29 02:36:00,
2013-07-28 20:55:00,79.0,64.0,29.70,WSW,241,0.0,0.0,60,0.00,,,0.00,,2013-07-29 02:55:00,
2013-07-28 21:03:00,78.0,64.0,29.70,WSW,240,0.0,1.0,63,0.00,,,0.00,,2013-07-29 03:03:00,
2013-07-28 21:15:00,77.0,64.0,29.70,WSW,240,0.0,0.0,65,0.00,,,0.00,,2013-07-29 03:15:00,
2013-07-28 21:36:00,77.0,66.0,29.70,WSW,241,0.0,0.0,68,0.00,,,0.00,,2013-07-29 03:36:00,
2013-07-28 21:47:00,76.0,66.0,29.70,WSW,240,0.0,1.0,72,0.00,,,0.00,,2013-07-29 03:47:00,
2013-07-28 21:55:00,76.0,66.0,29.70,WSW,240,0.0,1.0,72,0.00,,,0.00,,2013-07-29 03:55:00,
2013-07-28 22:02:00,76.0,67.0,29.71,WSW,241,0.0,0.0,73,0.00,,,0.00,,2013-07-29 04:02:00,
2013-07-28 22:12:00,75.0,67.0,29.71,WSW,241,0.0,0.0,75,0.00,,,0.00,,2013-07-29 04:12:00,
2013-07-28 22:22:00,75.0,67.0,29.71,WSW,241,0.0,0.0,75,0.00,,,0.00,,2013-07-29 04:22:00,
2013-07-28 22:32:00,75.0,67.0,29.72,WSW,241,0.0,0.0,76,0.00,,,0.00,,2013-07-29 04:32:00,
2013-07-28 22:53:00,75.0,68.0,29.72,WSW,241,0.0,0.0,78,0.00,,,0.00,,2013-07-29 04:53:00,
2013-07-28 23:02:00,74.0,67.0,29.72,WSW,240,0.0,0.0,79,0.00,,,0.00,,2013-07-29 05:02:00,
2013-07-28 23:22:00,74.0,67.0,29.72,WSW,240,0.0,0.0,80,0.00,,,0.00,,2013-07-29 05:22:00,
2013-07-28 23:32:00,73.0,66.0,29.72,WSW,240,0.0,0.0,80,0.00,,,0.00,,2013-07-29 05:32:00,
2013-07-28 23:53:00,73.0,66.0,29.73,WSW,241,0.0,0.0,80,0.00,,,0.00,,2013-07-29 05:53:00,